FW1286 Weather Reports


Display with metric or nautical units.
time (UTC)temp
F
wind
direction
speed
MPH
gust
MPH
rain 1hr
in
rain 24hr
in
rain mn
in
humidity
%
barometer
mb
20260905233927 96 92 1.0 8.0 0.00 0.00 0.00 45 1009.3
20260905232948 96 105 4.0 8.0 0.00 0.00 0.00 45 1009.4
20260905231951 96 130 2.0 6.0 0.00 0.00 0.00 46 1009.2
20260905230956 96 5 2.0 7.0 0.00 0.00 0.00 45 1009.2
20260905224905 96 135 4.0 10.0 0.00 0.00 0.00 46 1009.3
20260905223836 96 128 3.0 8.0 0.00 0.00 0.00 46 1009.3
20260905221631 96 77 3.0 13.0 0.00 0.00 0.00 46 1009.4
20260905220558 95 102 2.0 8.0 0.00 0.00 0.00 46 1009.4
20260905215551 94 48 1.0 5.0 0.00 0.00 0.00 49 1009.5
20260905214533 93 93 1.0 6.0 0.00 0.00 0.00 50 1009.6
20260905213522 94 75 2.0 6.0 0.00 0.00 0.00 50 1009.6
20260905210256 96 61 3.0 8.0 0.00 0.00 0.00 48 1009.9
20260905205314 96 327 3.0 9.0 0.00 0.00 0.00 48 1010.1
20260905204254 95 147 2.0 9.0 0.00 0.00 0.00 49 1010.2
20260905203233 95 175 3.0 9.0 0.00 0.00 0.00 49 1010.3
20260905202226 95 149 2.0 9.0 0.00 0.00 0.00 50 1010.5
20260905201221 95 137 4.0 9.0 0.00 0.00 0.00 49 1010.6
20260905200241 94 179 4.0 9.0 0.00 0.00 0.00 50 1010.8
20260905195219 94 153 3.0 9.0 0.00 0.00 0.00 50 1011.1
20260905194148 94 112 4.0 12.0 0.00 0.00 0.00 52 1011.2
20260905193159 94 151 4.0 12.0 0.00 0.00 0.00 53 1011.2
20260905192130 93 177 2.0 8.0 0.00 0.00 0.00 53 1011.5
20260905191145 93 179 4.0 8.0 0.00 0.00 0.00 53 1011.8
20260905190150 93 107 3.0 8.0 0.00 0.00 0.00 53 1011.9
20260905185119 92 175 3.0 10.0 0.00 0.00 0.00 55 1012.0
20260905184114 92 166 4.0 11.0 0.00 0.00 0.00 55 1012.2
20260905183120 92 182 5.0 11.0 0.00 0.00 0.00 55 1012.3
20260905182135 92 166 3.0 9.0 0.00 0.00 0.00 53 1012.4
20260905181101 92 123 3.0 8.0 0.00 0.00 0.00 57 1012.6
20260905180030 92 125 3.0 10.0 0.00 0.00 0.00 57 1012.8
20260905175013 91 130 6.0 13.0 0.00 0.00 0.00 56 1012.8
20260905173942 90 159 4.0 10.0 0.00 0.00 0.00 60 1013.0
20260905172910 90 138 4.0 10.0 0.00 0.00 0.00 61 1013.2
20260905171901 90 200 5.0 13.0 0.00 0.00 0.00 60 1013.2
20260905170918 89 140 5.0 13.0 0.00 0.00 0.00 62 1013.4
20260905165853 90 138 4.0 10.0 0.00 0.00 0.00 62 1013.3
20260905164846 89 180 4.0 12.0 0.00 0.00 0.00 64 1013.4
20260905162631 88 119 3.0 10.0 0.00 0.00 0.00 67 1013.4
20260905161605 87 136 4.0 10.0 0.00 0.00 0.00 69 1013.5
20260905160550 87 141 4.0 9.0 0.00 0.00 0.00 70 1013.5
20260905155522 87 164 4.0 12.0 0.00 0.00 0.00 71 1013.5
20260905154524 86 120 5.0 12.0 0.00 0.00 0.00 71 1013.5
20260905153506 85 111 5.0 9.0 0.00 0.00 0.00 74 1013.5
20260905152507 84 139 5.0 9.0 0.00 0.00 0.00 78 1013.5
20260905145228 82 170 4.0 8.0 0.00 0.00 0.00 84 1013.6
20260905144243 81 178 4.0 9.0 0.00 0.00 0.00 86 1013.5
20260905143242 81 169 4.0 9.0 0.00 0.00 0.00 88 1013.5
20260905141147 80 117 3.0 6.0 0.00 0.00 0.00 91 1013.6
20260905140145 79 111 2.0 6.0 0.00 0.00 0.00 93 1013.7
20260905135114 78 67 1.0 4.0 0.00 0.00 0.00 94 1013.6
20260905134051 77 121 0.0 4.0 0.00 0.00 0.00 95 1013.4